Location: Lecco
(45.8566°N, 9.3977°E)
Time: 22:40:23
(UTC+02:00)

ISS - Pass Details

Date: 22 July 2018
Orbit: 402 x 408 km, 51.6° (Epoch: 22 July)

Event Time Altitude Azimuth Distance (km) Brightness Sun altitude
Rises 02:06:02 0° 295° (WNW) 2,328 0.2 -23.3°
Reaches altitude 10° 02:08:13 10° 305° (NW) 1,468 -0.7 -23.2°
Maximum altitude 02:11:18 36° 14° (NNE) 669 -2.2 -23.1°
Drops below altitude 10° 02:14:22 10° 83° (E) 1,468 -0.8 -23.0°
Sets 02:16:33 0° 92° (E) 2,328 0.2 -22.9°
